• In Latvia
  • List of Countries
  • For 7 days
  • Water Temperature
  • Satellite Maps
  • Weather Map
  • Weather Widgets
  • user-avatar
    Login

    Hourly Weather Hincesti

    Today, 22 August, Wednesday

    Time Temperature Precipitation Wind Pressure Humidity
    00:00 +24°C° 0.1 mm 2 mps 750 mmHg 62%
    01:00 +24°C° 0.1 mm 3 mps 750 mmHg 68%
    02:00 +22°C° 0.1 mm 3 mps 750 mmHg 74%
    03:00 +21°C° 0 mm 3 mps 751 mmHg 77%
    04:00 +21°C° 0 mm 3 mps 751 mmHg 80%
    05:00 +20°C° 0 mm 3 mps 751 mmHg 82%
    06:00 +22°C° 0 mm 3 mps 751 mmHg 76%
    07:00 +23°C° 0 mm 4 mps 751 mmHg 69%
    08:00 +25°C° 0 mm 4 mps 752 mmHg 62%
    09:00 +27°C° 0 mm 4 mps 752 mmHg 56%
    10:00 +28°C° 0 mm 5 mps 752 mmHg 49%
    11:00 +30°C° 0 mm 5 mps 752 mmHg 42%
    12:00 +32°C° 0 mm 5 mps 752 mmHg 40%
    13:00 +32°C° 0 mm 5 mps 752 mmHg 38%
    14:00 +33°C° 0 mm 4 mps 752 mmHg 36%
    15:00 +32°C° 0 mm 4 mps 752 mmHg 37%
    16:00 +32°C° 0 mm 4 mps 752 mmHg 37%
    17:00 +32°C° 0 mm 4 mps 751 mmHg 38%
    18:00 +29°C° 0 mm 4 mps 752 mmHg 42%
    19:00 +27°C° 0 mm 3 mps 752 mmHg 46%
    20:00 +25°C° 0 mm 3 mps 752 mmHg 51%
    21:00 +24°C° 0 mm 3 mps 752 mmHg 53%
    22:00 +22°C° 0 mm 3 mps 752 mmHg 55%
    23:00 +21°C° 0 mm 3 mps 753 mmHg 58%

    Tomorrow, 23 August, Thursday

    Time Temperature Precipitation Wind Pressure Humidity
    00:00 +21°C° 0 mm 3 mps 753 mmHg 59%
    01:00 +20°C° 0 mm 3 mps 753 mmHg 61%
    02:00 +20°C° 0 mm 3 mps 753 mmHg 62%
    03:00 +19°C° 0 mm 3 mps 753 mmHg 63%
    04:00 +19°C° 0 mm 2 mps 753 mmHg 63%
    05:00 +18°C° 0 mm 2 mps 753 mmHg 63%
    06:00 +20°C° 0 mm 3 mps 753 mmHg 58%
    07:00 +21°C° 0 mm 3 mps 753 mmHg 53%
    08:00 +24°C° 0 mm 3 mps 753 mmHg 48%
    09:00 +25°C° 0 mm 3 mps 753 mmHg 44%
    10:00 +27°C° 0 mm 3 mps 753 mmHg 40%
    11:00 +29°C° 0 mm 3 mps 753 mmHg 36%
    12:00 +29°C° 0 mm 3 mps 752 mmHg 34%
    13:00 +30°C° 0 mm 3 mps 752 mmHg 32%
    14:00 +31°C° 0 mm 3 mps 751 mmHg 30%
    15:00 +32°C° 0 mm 4 mps 751 mmHg 30%
    16:00 +30°C° 0 mm 4 mps 751 mmHg 29%
    17:00 +30°C° 0 mm 4 mps 750 mmHg 29%
    18:00 +28°C° 0 mm 3 mps 750 mmHg 32%
    19:00 +26°C° 0 mm 3 mps 751 mmHg 35%
    20:00 +24°C° 0 mm 3 mps 751 mmHg 38%
    21:00 +23°C° 0 mm 2 mps 751 mmHg 39%
    22:00 +21°C° 0 mm 2 mps 751 mmHg 41%
    23:00 +20°C° 0 mm 2 mps 751 mmHg 42%

    Day after tomorrow, 24 August, Friday

    Time Temperature Precipitation Wind Pressure Humidity
    00:00 +19°C° 0 mm 2 mps 751 mmHg 42%
    01:00 +20°C° 0 mm 1 mps 750 mmHg 43%
    02:00 +19°C° 0 mm 1 mps 750 mmHg 43%
    03:00 +19°C° 0 mm 1 mps 750 mmHg 43%
    04:00 +18°C° 0 mm 1 mps 750 mmHg 44%
    05:00 +18°C° 0 mm 1 mps 750 mmHg 44%
    06:00 +20°C° 0 mm 1 mps 750 mmHg 42%
    07:00 +20°C° 0 mm 2 mps 750 mmHg 40%
    08:00 +23°C° 0 mm 2 mps 750 mmHg 38%
    09:00 +25°C° 0 mm 2 mps 750 mmHg 36%
    10:00 +27°C° 0 mm 3 mps 749 mmHg 33%
    11:00 +29°C° 0 mm 3 mps 749 mmHg 30%
    12:00 +30°C° 0 mm 3 mps 749 mmHg 28%
    13:00 +31°C° 0 mm 3 mps 748 mmHg 26%
    14:00 +33°C° 0 mm 3 mps 748 mmHg 23%
    15:00 +31°C° 0 mm 3 mps 748 mmHg 23%
    16:00 +31°C° 0 mm 3 mps 747 mmHg 23%
    17:00 +31°C° 0 mm 3 mps 747 mmHg 22%
    18:00 +29°C° 0 mm 3 mps 747 mmHg 25%
    19:00 +26°C° 0 mm 3 mps 747 mmHg 27%
    20:00 +24°C° 0 mm 2 mps 747 mmHg 30%
    21:00 +23°C° 0 mm 2 mps 747 mmHg 31%
    22:00 +22°C° 0 mm 1 mps 747 mmHg 31%
    23:00 +21°C° 0 mm 1 mps 747 mmHg 32%

    25 August, Saturday

    Time Temperature Precipitation Wind Pressure Humidity
    00:00 +20°C° 0 mm 1 mps 747 mmHg 33%
    01:00 +20°C° 0 mm 1 mps 747 mmHg 34%
    02:00 +19°C° 0 mm 1 mps 746 mmHg 34%
    03:00 +19°C° 0 mm 1 mps 746 mmHg 35%
    04:00 +19°C° 0 mm 1 mps 746 mmHg 36%
    05:00 +16°C° 0 mm 0 mps 746 mmHg 36%
    06:00 +21°C° 0 mm 1 mps 746 mmHg 34%
    07:00 +23°C° 0 mm 1 mps 746 mmHg 32%
    08:00 +25°C° 0 mm 2 mps 746 mmHg 29%
    09:00 +27°C° 0 mm 2 mps 746 mmHg 29%
    10:00 +29°C° 0 mm 3 mps 746 mmHg 28%
    11:00 +31°C° 0 mm 3 mps 746 mmHg 27%
    12:00 +33°C° 0 mm 3 mps 745 mmHg 27%
    13:00 +33°C° 0 mm 4 mps 745 mmHg 27%
    14:00 +34°C° 0 mm 4 mps 745 mmHg 27%
    15:00 +34°C° 0 mm 4 mps 744 mmHg 28%
    16:00 +34°C° 0 mm 4 mps 744 mmHg 30%
    17:00 +33°C° 0 mm 4 mps 744 mmHg 31%
    18:00 +30°C° 0 mm 3 mps 744 mmHg 37%
    19:00 +28°C° 0 mm 3 mps 744 mmHg 44%
    20:00 +25°C° 0 mm 3 mps 744 mmHg 50%
    21:00 +24°C° 0 mm 2 mps 744 mmHg 57%
    22:00 +23°C° 0 mm 2 mps 744 mmHg 64%
    23:00 +21°C° 0 mm 2 mps 744 mmHg 71%

    26 August, Sunday

    Time Temperature Precipitation Wind Pressure Humidity
    00:00 +21°C° 0 mm 2 mps 744 mmHg 75%
    01:00 +20°C° 0 mm 2 mps 744 mmHg 79%
    02:00 +21°C° 0 mm 1 mps 744 mmHg 82%
    03:00 +20°C° 0 mm 1 mps 744 mmHg 84%
    04:00 +20°C° 0 mm 1 mps 744 mmHg 85%
    05:00 +20°C° 0 mm 1 mps 744 mmHg 87%
    06:00 +20°C° 0 mm 2 mps 744 mmHg 78%
    07:00 +23°C° 0 mm 2 mps 744 mmHg 69%
    08:00 +25°C° 0 mm 2 mps 744 mmHg 60%
    09:00 +27°C° 0 mm 2 mps 744 mmHg 53%
    10:00 +29°C° 0 mm 2 mps 744 mmHg 45%
    11:00 +31°C° 0 mm 2 mps 744 mmHg 38%
    12:00 +32°C° 0 mm 2 mps 744 mmHg 34%
    13:00 +33°C° 0 mm 1 mps 743 mmHg 30%
    14:00 +34°C° 0 mm 1 mps 743 mmHg 27%
    15:00 +34°C° 0 mm 1 mps 743 mmHg 26%
    16:00 +34°C° 0 mm 1 mps 743 mmHg 26%
    17:00 +34°C° 0 mm 1 mps 742 mmHg 26%
    18:00 +31°C° 0 mm 1 mps 743 mmHg 30%
    19:00 +29°C° 0 mm 1 mps 743 mmHg 35%
    20:00 +27°C° 0 mm 1 mps 743 mmHg 39%
    21:00 +26°C° 0 mm 2 mps 743 mmHg 44%
    22:00 +25°C° 0 mm 2 mps 743 mmHg 48%
    23:00 +24°C° 0 mm 2 mps 743 mmHg 53%

    27 August, Monday

    Time Temperature Precipitation Wind Pressure Humidity
    00:00 +23°C° 0 mm 1 mps 743 mmHg 55%
    01:00 +23°C° 0 mm 1 mps 743 mmHg 57%
    02:00 +22°C° 0 mm 1 mps 743 mmHg 59%
    03:00 +22°C° 0 mm 1 mps 743 mmHg 62%
    04:00 +21°C° 0 mm 1 mps 743 mmHg 64%
    05:00 +21°C° 0 mm 1 mps 744 mmHg 67%
    06:00 +22°C° 0 mm 1 mps 744 mmHg 62%
    07:00 +24°C° 0 mm 2 mps 744 mmHg 58%
    08:00 +26°C° 0 mm 2 mps 745 mmHg 53%
    09:00 +28°C° 0 mm 2 mps 745 mmHg 48%
    10:00 +29°C° 0 mm 2 mps 745 mmHg 43%
    11:00 +31°C° 0 mm 2 mps 745 mmHg 38%
    12:00 +32°C° 0 mm 2 mps 745 mmHg 36%
    13:00 +32°C° 0 mm 2 mps 744 mmHg 35%
    14:00 +32°C° 0 mm 2 mps 744 mmHg 33%
    15:00 +31°C° 0 mm 3 mps 744 mmHg 38%
    16:00 +30°C° 0 mm 4 mps 744 mmHg 42%
    17:00 +28°C° 0 mm 5 mps 744 mmHg 47%
    18:00 +26°C° 0.3 mm 5 mps 745 mmHg 56%
    19:00 +23°C° 0.3 mm 6 mps 745 mmHg 65%
    20:00 +21°C° 0.3 mm 6 mps 745 mmHg 74%
    21:00 +21°C° 0.3 mm 6 mps 745 mmHg 78%
    22:00 +20°C° 0.3 mm 6 mps 746 mmHg 81%
    23:00 +18°C° 0.3 mm 7 mps 746 mmHg 85%
    Show more